DELTA 1 DEB, 12532

Orbit data source: Space-Track

DELTA 1 DEB, 12532 is space debris in SSO originally from a launch on Thu, 29 Jul 1976 UTC launched from the Air Force Western Test Range (AFWTR). Debris objects in space refer to the collection of defunct objects orbiting the Earth. Examples of debris include non-operational satellites, rocket bodies, and fragments generated from explosions, collisions, or faulty payload assembly.

Loading next visibility...
Identifier
12532, 1976-077DM
Orbit
SSO
Country
Flag of USUS
Related business
Manufacturer
Unknown
Mission
Spacecraft
Bus & Motor
Unknown
Mass
Unknown
Launch date (UTC)
1976-07-29 (50 years ago)
Launch vehicle
Unknown
Launch site
Air Force Western Test Range (AFWTR)
Object type
Payload
Rocket body
Debris
Shape & HBR
Unknown shape, 0.1 m
Radar Cross Section
Medium (>0.1 m² and <1 m²)

Expand to show TLE details & history
Last TLE update: 5 hours ago

TLE from 5 hours ago
0 DELTA 1 DEB
1 12532U 76077DM  26255.92468541  .00000862  00000-0  36047-2 0  9997
2 12532 102.1397 260.1153 0244537 108.4006 322.0111 12.78557006392027
Epoch: 2026-09-12T22:11Z
TLE epoch observation values (Epoch: 2026-09-12T22:11:32.819Z)
Latitude
65.66354°
Longitude
-92.93944°
Altitude
1,211.323 km
Speed
7.323 km/s
True Right ascension
15h 27m 29s
True Declination
65° 32' 31"
Sunlit
Object was in daylight at epoch
Visualization orbit readout
Latitude
Unknown
Longitude
Unknown
Altitude
Unknown
Speed
Unknown
Apparent Right ascension
Unknown
Apparent Declination
Unknown
Sunlit
N/A
Visualization observer readout
Local Sidereal Time
19:40:13
Azimuth
Unknown
Elevation
Unknown
Doppler factor
Unknown
Orbital elements
Apogee altitude
1,533.663 km
Perigee altitude
1,155.954 km
Semi-major axis
7,722.945 km
Eccentricity
0.02445
Inclination
102.1397°
RAAN
260.1153°
Arg. of periapsis
108.4006°
True anomaly
320.24408°
Mean anomaly
322.0111°
Eccentric anomaly
321.13187°
Mean motion
3.19793 °/min
Orbital period
112.57 mins
BSTAR
0.0036047
Loading maneuver chart data...
Computing Atmospheric mass density...
Loading historical data...
Loading historical data...
Loading historical data...
Loading historical data...
Loading historical data...
Loading historical data...
Loading historical data...

Documentation

Showing up to 5 results
|